Location: Stony Creek
(40.9500°S, 175.8500°E)
Time: 10:07:28
(UTC+00:00)

Cosmos 1339 Rocket - Pass Details

Date: 15 May 2026
Orbit: 940 x 1006 km, 82.9° (Epoch: 10 June)

Event Time Altitude Azimuth Distance (km) Brightness Sun altitude
Rises 16:41:32 0° 190° (S) 3,766 7.5 -29.4°
Enters shadow 16:41:43 - 190° (S) 3,697 7.4 -29.4°
Exits shadow 16:50:19 71° 257° (WSW) 1,071 4.4 -27.7°
Maximum altitude 16:50:33 72° 274° (W) 1,066 4.4 -27.7°
Drops below altitude 10° 16:56:55 10° 357° (N) 2,774 6.9 -26.5°
Sets 16:59:26 0° 358° (N) 3,710 7.6 -26.0°
